�N����,����,�g�[���i���ԁj���x,�g�[�����x,��g�[���i���ցj���x,����
 2004/02/01, 0:00,22.6,36,18.4,-9.9
 2004/02/01, 0:15,22.4,34,18.3,-9.9
 2004/02/01, 0:30,22,34,18.2,-9.9
 2004/02/01, 0:45,21.8,33,18.2,-9.9
 2004/02/01, 1:00,21.5,33,18,-9.9
 2004/02/01, 1:15,21.3,34,18,-9.9
 2004/02/01, 1:30,21.1,33,17.9,-9.9
 2004/02/01, 1:45,21,34,17.9,-9.9
 2004/02/01, 2:00,20.9,35,17.8,-9.9
 2004/02/01, 2:15,20.8,35,17.8,-9.9
 2004/02/01, 2:30,20.7,36,17.6,-9.9
 2004/02/01, 2:45,20.6,36,17.6,-9.9
 2004/02/01, 3:00,20.6,36,17.7,-9.9
 2004/02/01, 3:15,20.4,36,17.5,-9.9
 2004/02/01, 3:30,20.4,37,17.6,-9.9
 2004/02/01, 3:45,20.3,37,17.5,-9.9
 2004/02/01, 4:00,20.3,37,17.5,-9.9
 2004/02/01, 4:15,20.2,37,17.3,-9.9
 2004/02/01, 4:30,20.1,37,17.3,-9.9
 2004/02/01, 4:45,20.1,37,17.2,-9.9
 2004/02/01, 5:00,20.1,37,17.3,-9.9
 2004/02/01, 5:15,20,37,17.2,-9.9
 2004/02/01, 5:30,19.9,37,17.1,-9.9
 2004/02/01, 5:45,19.9,37,17,-9.9
 2004/02/01, 6:00,19.8,37,17,-9.9
 2004/02/01, 6:15,19.8,37,17,-9.9
 2004/02/01, 6:30,19.7,37,17,-9.9
 2004/02/01, 6:45,19.7,37,16.9,-9.9
 2004/02/01, 7:00,19.6,37,17,-9.9
 2004/02/01, 7:15,19.6,37,16.9,-9.9
 2004/02/01, 7:30,19.5,37,16.8,-9.9
 2004/02/01, 7:45,19.5,37,16.8,-9.9
 2004/02/01, 8:00,19.5,37,16.8,-9.9
 2004/02/01, 8:15,19.4,38,16.8,-9.9
 2004/02/01, 8:30,19.4,38,16.7,-9.9
 2004/02/01, 8:45,21.9,37,17.3,-9.9
 2004/02/01, 9:00,22.2,34,17.8,-9.9
 2004/02/01, 9:15,22.7,33,17.9,-9.9
 2004/02/01, 9:30,22.9,39,17.7,-9.9
 2004/02/01, 9:45,22.6,38,17.5,-9.9
 2004/02/01,10:00,22,38,17.9,-9.9
 2004/02/01,10:15,21.5,37,18.3,-9.9
 2004/02/01,10:30,21.2,37,18.4,-9.9
 2004/02/01,10:45,21.1,37,18.5,-9.9
 2004/02/01,11:00,21,37,18.3,-9.9
 2004/02/01,11:15,21.1,36,18.2,-9.9
 2004/02/01,11:30,21,36,18.1,-9.9
 2004/02/01,11:45,20.9,36,18.1,-9.9
 2004/02/01,12:00,20.7,35,18.1,-9.9
 2004/02/01,12:15,20.7,35,18,-9.9
 2004/02/01,12:30,20.7,35,18,-9.9
 2004/02/01,12:45,20.8,34,18,-9.9
 2004/02/01,13:00,20.6,34,18,-9.9
 2004/02/01,13:15,20.6,35,18.4,-9.9
 2004/02/01,13:30,20.7,35,18.4,-9.9
 2004/02/01,13:45,20.8,36,18.5,-9.9
 2004/02/01,14:00,23.1,34,19.1,-9.9
 2004/02/01,14:15,22.1,36,18.4,-9.9
 2004/02/01,14:30,21.9,36,18,-9.9
 2004/02/01,14:45,22,35,17.8,-9.9
 2004/02/01,15:00,22.2,35,17.8,-9.9
 2004/02/01,15:15,22.1,35,17.7,-9.9
 2004/02/01,15:30,21.8,32,17.6,-9.9
 2004/02/01,15:45,22.5,27,18.2,-9.9
 2004/02/01,16:00,23.4,28,18.3,-9.9
 2004/02/01,16:15,23.9,28,18.6,-9.9
 2004/02/01,16:30,23.9,28,18.9,-9.9
 2004/02/01,16:45,23.6,31,19,-9.9
 2004/02/01,17:00,23.5,34,18.8,-9.9
 2004/02/01,17:15,23.3,34,18.9,-9.9
 2004/02/01,17:30,23.2,39,18.7,-9.9
 2004/02/01,17:45,23.2,40,18.6,-9.9
 2004/02/01,18:00,22.9,40,19,-9.9
 2004/02/01,18:15,22.9,41,19.3,-9.9
 2004/02/01,18:30,22.6,40,19.2,-9.9
 2004/02/01,18:45,22.4,37,19.2,-9.9
 2004/02/01,19:00,22.4,40,19,-9.9
 2004/02/01,19:15,22.5,37,19.1,-9.9
 2004/02/01,19:30,22.9,42,18.9,-9.9
 2004/02/01,19:45,23,42,18.9,-9.9
 2004/02/01,20:00,22.9,41,19,-9.9
 2004/02/01,20:15,23,41,19.3,-9.9
 2004/02/01,20:30,22.9,42,19.5,-9.9
 2004/02/01,20:45,23.2,47,19.3,-9.9
 2004/02/01,21:00,23.3,44,19.1,-9.9
 2004/02/01,21:15,23.4,44,18.9,-9.9
 2004/02/01,21:30,23.6,44,18.8,-9.9
 2004/02/01,21:45,23.7,44,18.8,-9.9
 2004/02/01,22:00,23.5,42,19,-9.9
 2004/02/01,22:15,23.5,41,18.9,-9.9
 2004/02/01,22:30,23.6,41,19,-9.9
 2004/02/01,22:45,23.6,40,18.9,-9.9
 2004/02/01,23:00,23.7,41,18.9,-9.9
 2004/02/01,23:15,23.8,42,19,-9.9
 2004/02/01,23:30,23.9,42,19,-9.9
 2004/02/01,23:45,23.9,43,18.9,-9.9
 2004/02/02, 0:00,23.9,43,18.9,-9.9
 2004/02/02, 0:15,23.6,43,19,-9.9
 2004/02/02, 0:30,23.3,43,18.8,-9.9
 2004/02/02, 0:45,23.1,43,18.8,-9.9
 2004/02/02, 1:00,22.8,43,18.7,-9.9
 2004/02/02, 1:15,22.6,44,18.7,-9.9
 2004/02/02, 1:30,22.4,44,18.7,-9.9
 2004/02/02, 1:45,22.3,45,18.6,-9.9
 2004/02/02, 2:00,22.1,45,18.6,-9.9
 2004/02/02, 2:15,22,45,18.5,-9.9
 2004/02/02, 2:30,21.8,45,18.4,-9.9
 2004/02/02, 2:45,21.7,45,18.5,-9.9
 2004/02/02, 3:00,21.6,45,18.3,-9.9
 2004/02/02, 3:15,21.5,45,18.4,-9.9
 2004/02/02, 3:30,21.4,45,18.4,-9.9
 2004/02/02, 3:45,21.4,45,18.3,-9.9
 2004/02/02, 4:00,21.3,45,18.2,-9.9
 2004/02/02, 4:15,21.3,45,18.3,-9.9
 2004/02/02, 4:30,21.2,46,18.2,-9.9
 2004/02/02, 4:45,21.2,46,18.2,-9.9
 2004/02/02, 5:00,21.1,46,18.2,-9.9
 2004/02/02, 5:15,21.1,46,18,-9.9
 2004/02/02, 5:30,21,46,18.1,-9.9
 2004/02/02, 5:45,21,46,18.1,-9.9
 2004/02/02, 6:00,23.1,44,18.5,-9.9
 2004/02/02, 6:15,23.7,43,19.1,-9.9
 2004/02/02, 6:30,23.4,40,19.1,-9.9
 2004/02/02, 6:45,24.1,39,19.3,-9.9
 2004/02/02, 7:00,22.8,40,19.3,-9.9
 2004/02/02, 7:15,24.2,40,19.6,-9.9
 2004/02/02, 7:30,24.8,40,20.1,-9.9
 2004/02/02, 7:45,24.8,40,20.3,-9.9
 2004/02/02, 8:00,24,43,19.7,-9.9
 2004/02/02, 8:15,23.7,42,19.8,-9.9
 2004/02/02, 8:30,23.6,42,19.6,-9.9
 2004/02/02, 8:45,23.6,42,19.4,-9.9
 2004/02/02, 9:00,23.5,42,19.4,-9.9
 2004/02/02, 9:15,23.2,42,19.7,-9.9
 2004/02/02, 9:30,23.1,43,19.7,-9.9
 2004/02/02, 9:45,22.7,43,19.7,-9.9
 2004/02/02,10:00,22.5,43,19.6,-9.9
 2004/02/02,10:15,24.7,40,20.1,-9.9
 2004/02/02,10:30,25.2,40,20.5,-9.9
 2004/02/02,10:45,25.6,39,20.8,-9.9
 2004/02/02,11:00,26,39,21,-9.9
 2004/02/02,11:15,26.2,39,21.2,-9.9
 2004/02/02,11:30,25.3,40,21.3,-9.9
 2004/02/02,11:45,24.3,42,21,-9.9
 2004/02/02,12:00,23.7,43,21.1,-9.9
 2004/02/02,12:15,23.4,43,21.2,-9.9
 2004/02/02,12:30,23.2,43,21.2,-9.9
 2004/02/02,12:45,23.1,40,21.2,-9.9
 2004/02/02,13:00,22.9,39,20.8,-9.9
 2004/02/02,13:15,22.6,39,20.4,-9.9
 2004/02/02,13:30,22.4,40,20.2,-9.9
 2004/02/02,13:45,22.2,40,20,-9.9
 2004/02/02,14:00,21.9,41,19.9,-9.9
 2004/02/02,14:15,21.8,42,19.5,-9.9
 2004/02/02,14:30,21.6,42,19.3,-9.9
 2004/02/02,14:45,24.1,42,19.8,-9.9
 2004/02/02,15:00,24.6,42,20.3,-9.9
 2004/02/02,15:15,24.4,43,20.3,-9.9
 2004/02/02,15:30,23.8,44,20.1,-9.9
 2004/02/02,15:45,23.6,45,20.2,-9.9
 2004/02/02,16:00,23.9,44,20.2,-9.9
 2004/02/02,16:15,23.8,44,20.1,-9.9
 2004/02/02,16:30,23.8,44,19.9,-9.9
 2004/02/02,16:45,23.8,44,20,-9.9
 2004/02/02,17:00,23.4,45,20.1,-9.9
 2004/02/02,17:15,23.2,46,20.3,-9.9
 2004/02/02,17:30,23.5,46,20.1,-9.9
 2004/02/02,17:45,23.3,45,20.4,-9.9
 2004/02/02,18:00,23.3,45,20.7,-9.9
 2004/02/02,18:15,23.4,45,20.8,-9.9
 2004/02/02,18:30,23.4,45,20.7,-9.9
 2004/02/02,18:45,23.5,44,20.5,-9.9
 2004/02/02,19:00,23.6,44,20.5,-9.9
 2004/02/02,19:15,23.8,43,20.7,-9.9
 2004/02/02,19:30,23.8,43,20.6,-9.9
 2004/02/02,19:45,23.4,42,20.5,-9.9
 2004/02/02,20:00,23.2,41,20.4,-9.9
 2004/02/02,20:15,23.1,41,20.5,-9.9
 2004/02/02,20:30,23.3,46,20.3,-9.9
 2004/02/02,20:45,23.8,47,20.2,-9.9
 2004/02/02,21:00,24,47,20.2,-9.9
 2004/02/02,21:15,24,49,20.2,-9.9
 2004/02/02,21:30,24.2,49,20.1,-9.9
 2004/02/02,21:45,24.2,48,20.5,-9.9
 2004/02/02,22:00,24.2,47,20.7,-9.9
 2004/02/02,22:15,24.1,48,21,-9.9
 2004/02/02,22:30,24.1,49,21.1,-9.9
 2004/02/02,22:45,23.8,47,21.1,-9.9
 2004/02/02,23:00,23.7,47,21,-9.9
 2004/02/02,23:15,23.7,47,21,-9.9
 2004/02/02,23:30,23.7,48,21.2,-9.9
 2004/02/02,23:45,23.7,48,21.3,-9.9
 2004/02/03, 0:00,23.7,48,21.2,-9.9
 2004/02/03, 0:15,23.7,48,21.3,-9.9
 2004/02/03, 0:30,23.6,48,21.3,-9.9
 2004/02/03, 0:45,23.7,48,21.4,-9.9
 2004/02/03, 1:00,23.6,48,21.4,-9.9
 2004/02/03, 1:15,23.2,47,21.2,-9.9
 2004/02/03, 1:30,22.9,47,21.1,-9.9
 2004/02/03, 1:45,22.7,48,21,-9.9
 2004/02/03, 2:00,22.5,48,20.8,-9.9
 2004/02/03, 2:15,22.3,48,20.8,-9.9
 2004/02/03, 2:30,22.2,49,20.6,-9.9
 2004/02/03, 2:45,22.1,49,20.5,-9.9
 2004/02/03, 3:00,21.9,50,20.6,-9.9
 2004/02/03, 3:15,21.9,49,20.5,-9.9
 2004/02/03, 3:30,21.7,49,20.3,-9.9
 2004/02/03, 3:45,21.6,49,20.3,-9.9
 2004/02/03, 4:00,21.5,49,20.2,-9.9
 2004/02/03, 4:15,21.4,49,20,-9.9
 2004/02/03, 4:30,21.4,48,19.9,-9.9
 2004/02/03, 4:45,21.3,48,19.9,-9.9
 2004/02/03, 5:00,21.2,49,19.9,-9.9
 2004/02/03, 5:15,21.2,49,19.9,-9.9
 2004/02/03, 5:30,21.1,49,19.8,-9.9
 2004/02/03, 5:45,22.3,49,19.7,-9.9
 2004/02/03, 6:00,23.2,45,19.9,-9.9
 2004/02/03, 6:15,23.8,41,20.4,-9.9
 2004/02/03, 6:30,23.9,41,20.2,-9.9
 2004/02/03, 6:45,23.2,42,19.7,-9.9
 2004/02/03, 7:00,22.9,42,20,-9.9
 2004/02/03, 7:15,23.1,43,20,-9.9
 2004/02/03, 7:30,24,43,20.4,-9.9
 2004/02/03, 7:45,24.7,42,20.6,-9.9
 2004/02/03, 8:00,24.5,43,21,-9.9
 2004/02/03, 8:15,23.7,44,20.8,-9.9
 2004/02/03, 8:30,23.4,45,20.7,-9.9
 2004/02/03, 8:45,23.2,47,20.7,-9.9
 2004/02/03, 9:00,23,47,20.7,-9.9
 2004/02/03, 9:15,22.9,48,20.6,-9.9
 2004/02/03, 9:30,22.8,48,20.6,-9.9
 2004/02/03, 9:45,22.7,45,20.5,-9.9
 2004/02/03,10:00,22.7,44,20.5,-9.9
 2004/02/03,10:15,22.5,43,20.5,-9.9
 2004/02/03,10:30,22.3,42,20.3,-9.9
 2004/02/03,10:45,22.1,42,20.2,-9.9
 2004/02/03,11:00,21.9,41,20,-9.9
 2004/02/03,11:15,21.7,39,20,-9.9
 2004/02/03,11:30,21.6,38,19.9,-9.9
 2004/02/03,11:45,21.5,37,19.7,-9.9
 2004/02/03,12:00,21.5,37,19.6,-9.9
 2004/02/03,12:15,21.4,36,19.5,-9.9
 2004/02/03,12:30,21.6,38,19.5,-9.9
 2004/02/03,12:45,21.6,36,19.3,-9.9
 2004/02/03,13:00,21.7,35,19.3,-9.9
 2004/02/03,13:15,21.8,35,19.4,-9.9
 2004/02/03,13:30,21.9,34,19.3,-9.9
 2004/02/03,13:45,22,33,19.4,-9.9
 2004/02/03,14:00,21.8,33,19.3,-9.9
 2004/02/03,14:15,21.6,27,19.2,-9.9
 2004/02/03,14:30,21.4,26,19,-9.9
 2004/02/03,14:45,21.3,31,19,-9.9
 2004/02/03,15:00,21.2,32,19,-9.9
 2004/02/03,15:15,21,33,18.9,-9.9
 2004/02/03,15:30,20.8,33,18.8,-9.9
 2004/02/03,15:45,20.6,32,18.8,-9.9
 2004/02/03,16:00,20.6,32,18.8,-9.9
 2004/02/03,16:15,20.6,34,18.7,-9.9
 2004/02/03,16:30,20.6,35,18.6,-9.9
 2004/02/03,16:45,20.6,35,18.6,-9.9
 2004/02/03,17:00,20.5,36,18.5,-9.9
 2004/02/03,17:15,20.4,35,18.5,-9.9
 2004/02/03,17:30,20.2,35,18.5,-9.9
 2004/02/03,17:45,20.2,35,18.4,-9.9
 2004/02/03,18:00,20.2,35,18.6,-9.9
 2004/02/03,18:15,22.2,35,18.9,-9.9
 2004/02/03,18:30,22.9,31,19.2,-9.9
 2004/02/03,18:45,23.1,30,19.4,-9.9
 2004/02/03,19:00,22.6,32,19.5,-9.9
 2004/02/03,19:15,22.6,33,19.3,-9.9
 2004/02/03,19:30,22.7,35,19.1,-9.9
 2004/02/03,19:45,22.8,36,19,-9.9
 2004/02/03,20:00,22.5,28,18.7,-9.9
 2004/02/03,20:15,22.6,33,19.3,-9.9
 2004/02/03,20:30,23,36,19,-9.9
 2004/02/03,20:45,23.1,38,19.2,-9.9
 2004/02/03,21:00,23.1,37,19.3,-9.9
 2004/02/03,21:15,23,38,19.4,-9.9
 2004/02/03,21:30,23,40,19.4,-9.9
 2004/02/03,21:45,23.1,42,19.4,-9.9
 2004/02/03,22:00,22.9,41,19.5,-9.9
 2004/02/03,22:15,22.9,40,19.4,-9.9
 2004/02/03,22:30,23,42,19.4,-9.9
 2004/02/03,22:45,22.5,43,19.5,-9.9
 2004/02/03,23:00,22.4,44,19.3,-9.9
 2004/02/03,23:15,22.2,45,19.3,-9.9
 2004/02/03,23:30,22,45,19.2,-9.9
 2004/02/03,23:45,21.8,44,19.2,-9.9
 2004/02/04, 0:00,21.6,43,19.1,-9.9
 2004/02/04, 0:15,21.4,43,19.1,-9.9
 2004/02/04, 0:30,21.3,43,18.9,-9.9
 2004/02/04, 0:45,21.2,44,18.9,-9.9
 2004/02/04, 1:00,21.1,44,18.8,-9.9
 2004/02/04, 1:15,21,44,18.8,-9.9
 2004/02/04, 1:30,20.9,44,18.6,-9.9
 2004/02/04, 1:45,20.8,44,18.7,-9.9
 2004/02/04, 2:00,20.8,43,18.6,-9.9
 2004/02/04, 2:15,20.6,43,18.6,-9.9
 2004/02/04, 2:30,20.5,42,18.5,-9.9
 2004/02/04, 2:45,20.4,42,18.4,-9.9
 2004/02/04, 3:00,20.4,43,18.5,-9.9
 2004/02/04, 3:15,20.3,43,18.4,-9.9
 2004/02/04, 3:30,20.3,43,18.3,-9.9
 2004/02/04, 3:45,20.2,43,18.4,-9.9
 2004/02/04, 4:00,20.2,43,18.4,-9.9
 2004/02/04, 4:15,20.2,43,18.3,-9.9
 2004/02/04, 4:30,20.1,43,18.2,-9.9
 2004/02/04, 4:45,20.1,43,18.2,-9.9
 2004/02/04, 5:00,20,42,18.2,-9.9
 2004/02/04, 5:15,20,42,18.1,-9.9
 2004/02/04, 5:30,19.9,43,18,-9.9
 2004/02/04, 5:45,20.3,43,18,-9.9
 2004/02/04, 6:00,23.2,39,18.2,-9.9
 2004/02/04, 6:15,24.2,39,18.4,-9.9
 2004/02/04, 6:30,23.6,35,18.6,-9.9
 2004/02/04, 6:45,23.5,35,19.1,-9.9
 2004/02/04, 7:00,22.8,38,19.3,-9.9
 2004/02/04, 7:15,22.4,37,19.3,-9.9
 2004/02/04, 7:30,24.3,35,19.8,-9.9
 2004/02/04, 7:45,24.4,34,19.8,-9.9
 2004/02/04, 8:00,23.3,36,19.5,-9.9
 2004/02/04, 8:15,22.9,35,19.4,-9.9
 2004/02/04, 8:30,22.8,35,19.2,-9.9
 2004/02/04, 8:45,22.6,35,19.2,-9.9
 2004/02/04, 9:00,22.5,34,19.1,-9.9
 2004/02/04, 9:15,22.2,36,19,-9.9
 2004/02/04, 9:30,21.9,35,19,-9.9
 2004/02/04, 9:45,21.5,33,18.8,-9.9
 2004/02/04,10:00,21.3,34,18.7,-9.9
 2004/02/04,10:15,21.1,33,18.7,-9.9
 2004/02/04,10:30,20.9,33,18.5,-9.9
 2004/02/04,10:45,20.8,33,18.4,-9.9
 2004/02/04,11:00,20.9,33,18.4,-9.9
 2004/02/04,11:15,20.8,33,18.4,-9.9
 2004/02/04,11:30,21,34,18.4,-9.9
 2004/02/04,11:45,21,33,18.2,-9.9
 2004/02/04,12:00,21.2,31,18.3,-9.9
 2004/02/04,12:15,20.5,27,18.1,-9.9
 2004/02/04,12:30,19.9,25,17.8,-9.9
 2004/02/04,12:45,22,26,17.8,-9.9
 2004/02/04,13:00,23.5,27,18.6,-9.9
 2004/02/04,13:15,24.6,27,19.1,-9.9
 2004/02/04,13:30,25,27,19.7,-9.9
 2004/02/04,13:45,24.7,27,19.9,-9.9
 2004/02/04,14:00,25.2,28,20.2,-9.9
 2004/02/04,14:15,24.9,29,20.4,-9.9
 2004/02/04,14:30,24.4,30,20.5,-9.9
 2004/02/04,14:45,23.3,24,20,-9.9
 2004/02/04,15:00,24,27,20.2,-9.9
 2004/02/04,15:15,24.6,28,20.5,-9.9
 2004/02/04,15:30,24.5,30,20.6,-9.9
 2004/02/04,15:45,23.6,32,20.4,-9.9
 2004/02/04,16:00,24.5,31,20.5,-9.9
 2004/02/04,16:15,24.7,31,20.8,-9.9
 2004/02/04,16:30,25,32,20.9,-9.9
 2004/02/04,16:45,25.2,31,21.1,-9.9
 2004/02/04,17:00,24.8,32,21.1,-9.9
 2004/02/04,17:15,24.3,33,21,-9.9
 2004/02/04,17:30,24.7,32,21,-9.9
 2004/02/04,17:45,25.3,32,21.3,-9.9
 2004/02/04,18:00,25.7,31,21.3,-9.9
 2004/02/04,18:15,24,32,21.1,-9.9
 2004/02/04,18:30,23.8,33,20.4,-9.9
 2004/02/04,18:45,24.7,30,20.5,-9.9
 2004/02/04,19:00,25.1,31,20.7,-9.9
 2004/02/04,19:15,25.5,30,21,-9.9
 2004/02/04,19:30,25.6,31,21.4,-9.9
 2004/02/04,19:45,25,31,21.3,-9.9
 2004/02/04,20:00,25,27,21.2,-9.9
 2004/02/04,20:15,24.9,28,20.8,-9.9
 2004/02/04,20:30,24.9,25,21.1,-9.9
 2004/02/04,20:45,25.2,26,21.2,-9.9
 2004/02/04,21:00,25.9,29,21.5,-9.9
 2004/02/04,21:15,26.4,31,21.8,-9.9
 2004/02/04,21:30,26.7,31,22,-9.9
 2004/02/04,21:45,26.3,32,22.2,-9.9
 2004/02/04,22:00,25.9,31,22.3,-9.9
 2004/02/04,22:15,24.7,31,22,-9.9
 2004/02/04,22:30,24.3,31,21.8,-9.9
 2004/02/04,22:45,23.5,31,21.4,-9.9
 2004/02/04,23:00,23,30,21.2,-9.9
 2004/02/04,23:15,22.6,30,20.8,-9.9
 2004/02/04,23:30,22.2,30,20.5,-9.9
 2004/02/04,23:45,22,30,20.4,-9.9
 2004/02/05, 0:00,21.7,31,20.1,-9.9
 2004/02/05, 0:15,21.4,30,19.9,-9.9
 2004/02/05, 0:30,21.3,31,19.7,-9.9
 2004/02/05, 0:45,21,32,19.6,-9.9
 2004/02/05, 1:00,20.9,33,19.5,-9.9
 2004/02/05, 1:15,20.8,33,19.2,-9.9
 2004/02/05, 1:30,20.7,33,19.1,-9.9
 2004/02/05, 1:45,20.6,34,19.1,-9.9
 2004/02/05, 2:00,20.5,34,18.9,-9.9
 2004/02/05, 2:15,20.3,35,18.8,-9.9
 2004/02/05, 2:30,20.3,35,18.8,-9.9
 2004/02/05, 2:45,20.2,35,18.7,-9.9
 2004/02/05, 3:00,20.2,35,18.5,-9.9
 2004/02/05, 3:15,20.1,35,18.4,-9.9
 2004/02/05, 3:30,20,36,18.3,-9.9
 2004/02/05, 3:45,20,36,18.4,-9.9
 2004/02/05, 4:00,19.9,35,18.2,-9.9
 2004/02/05, 4:15,19.7,35,18.2,-9.9
 2004/02/05, 4:30,19.7,35,18,-9.9
 2004/02/05, 4:45,19.6,35,18,-9.9
 2004/02/05, 5:00,19.5,35,18,-9.9
 2004/02/05, 5:15,19.5,35,17.9,-9.9
 2004/02/05, 5:30,19.3,35,17.8,-9.9
 2004/02/05, 5:45,19.7,36,17.7,-9.9
 2004/02/05, 6:00,22.1,34,18.1,-9.9
 2004/02/05, 6:15,22.6,31,18.3,-9.9
 2004/02/05, 6:30,23.1,30,18.5,-9.9
 2004/02/05, 6:45,23.7,30,18.8,-9.9
 2004/02/05, 7:00,22.5,31,19.1,-9.9
 2004/02/05, 7:15,23.5,31,18.9,-9.9
 2004/02/05, 7:30,24,31,19.2,-9.9
 2004/02/05, 7:45,24,31,19.6,-9.9
 2004/02/05, 8:00,24.4,31,19.8,-9.9
 2004/02/05, 8:15,24.3,32,19.4,-9.9
 2004/02/05, 8:30,23.6,33,19,-9.9
 2004/02/05, 8:45,23.4,34,18.6,-9.9
 2004/02/05, 9:00,23.2,34,18.4,-9.9
 2004/02/05, 9:15,22.7,33,18.1,-9.9
 2004/02/05, 9:30,22.5,33,18,-9.9
 2004/02/05, 9:45,22.3,34,17.8,-9.9
 2004/02/05,10:00,22,33,17.8,-9.9
 2004/02/05,10:15,21.8,33,17.6,-9.9
 2004/02/05,10:30,21.7,33,17.5,-9.9
 2004/02/05,10:45,21.5,32,17.5,-9.9
 2004/02/05,11:00,21.3,31,17.3,-9.9
 2004/02/05,11:15,21.2,31,17.3,-9.9
 2004/02/05,11:30,21.1,32,17.1,-9.9
 2004/02/05,11:45,20.9,32,17.2,-9.9
 2004/02/05,12:00,20.6,31,17.2,-9.9
 2004/02/05,12:15,20.6,32,17.3,-9.9
 2004/02/05,12:30,22.2,31,17.3,-9.9
 2004/02/05,12:45,23.4,30,17.8,-9.9
 2004/02/05,13:00,23.8,30,18.1,-9.9
 2004/02/05,13:15,23.4,32,17.8,-9.9
 2004/02/05,13:30,22.7,33,17.5,-9.9
 2004/02/05,13:45,22.5,34,17.4,-9.9
 2004/02/05,14:00,22.5,35,17.5,-9.9
 2004/02/05,14:15,22.4,38,17.3,-9.9
 2004/02/05,14:30,22.3,37,17.2,-9.9
 2004/02/05,14:45,22.3,38,17.2,-9.9
 2004/02/05,15:00,22.3,37,17,-9.9
 2004/02/05,15:15,22.1,37,17,-9.9
 2004/02/05,15:30,22,36,17,-9.9
 2004/02/05,15:45,21.9,35,16.7,-9.9
 2004/02/05,16:00,22,35,16.6,-9.9
 2004/02/05,16:15,22,35,16.5,-9.9
 2004/02/05,16:30,22,35,16.6,-9.9
 2004/02/05,16:45,22,34,16.5,-9.9
 2004/02/05,17:00,23.3,31,17.1,-9.9
 2004/02/05,17:15,23.4,30,17.6,-9.9
 2004/02/05,17:30,23.5,30,18.1,-9.9
 2004/02/05,17:45,23.3,30,18,-9.9
 2004/02/05,18:00,23,32,17.6,-9.9
 2004/02/05,18:15,23.1,28,17.8,-9.9
 2004/02/05,18:30,23.2,26,18.1,-9.9
 2004/02/05,18:45,23.4,25,18.4,-9.9
 2004/02/05,19:00,23.3,24,18.5,-9.9
 2004/02/05,19:15,23.3,24,18.7,-9.9
 2004/02/05,19:30,23.2,24,18.5,-9.9
 2004/02/05,19:45,23.4,24,18.6,-9.9
 2004/02/05,20:00,23.6,26,18.5,-9.9
 2004/02/05,20:15,23.1,28,18.1,-9.9
 2004/02/05,20:30,22.8,27,18,-9.9
 2004/02/05,20:45,23,30,17.9,-9.9
 2004/02/05,21:00,23.1,31,17.7,-9.9
 2004/02/05,21:15,23.1,32,17.7,-9.9
 2004/02/05,21:30,23,31,17.5,-9.9
 2004/02/05,21:45,23,32,17.5,-9.9
 2004/02/05,22:00,22.8,32,17.8,-9.9
 2004/02/05,22:15,22.5,32,18.1,-9.9
 2004/02/05,22:30,22.3,33,18.3,-9.9
 2004/02/05,22:45,22.1,32,18.5,-9.9
 2004/02/05,23:00,22.4,33,18.1,-9.9
 2004/02/05,23:15,22.5,32,17.9,-9.9
 2004/02/05,23:30,22.4,31,17.9,-9.9
 2004/02/05,23:45,22.4,32,17.9,-9.9
 2004/02/06, 0:00,22.3,31,17.9,-9.9
 2004/02/06, 0:15,22.2,31,17.8,-9.9
 2004/02/06, 0:30,22.3,31,17.8,-9.9
 2004/02/06, 0:45,22.3,32,17.8,-9.9
 2004/02/06, 1:00,22.6,30,17.7,-9.9
 2004/02/06, 1:15,22.3,31,17.9,-9.9
 2004/02/06, 1:30,21.8,32,17.8,-9.9
 2004/02/06, 1:45,21.5,32,17.7,-9.9
 2004/02/06, 2:00,21.2,31,17.5,-9.9
 2004/02/06, 2:15,20.9,31,17.4,-9.9
 2004/02/06, 2:30,20.6,31,17.3,-9.9
 2004/02/06, 2:45,20.4,30,17.3,-9.9
 2004/02/06, 3:00,20.3,31,17.2,-9.9
 2004/02/06, 3:15,20.2,31,17.1,-9.9
 2004/02/06, 3:30,20,32,17,-9.9
 2004/02/06, 3:45,19.9,32,17,-9.9
 2004/02/06, 4:00,19.9,33,16.9,-9.9
 2004/02/06, 4:15,19.7,33,16.8,-9.9
 2004/02/06, 4:30,19.7,33,16.8,-9.9
 2004/02/06, 4:45,19.6,34,16.8,-9.9
 2004/02/06, 5:00,19.4,33,16.6,-9.9
 2004/02/06, 5:15,19.3,33,16.6,-9.9
 2004/02/06, 5:30,19.2,33,16.6,-9.9
 2004/02/06, 5:45,19.9,33,16.6,-9.9
 2004/02/06, 6:00,22.3,34,16.8,-9.9
 2004/02/06, 6:15,23.4,34,17.2,-9.9
 2004/02/06, 6:30,23.1,30,17.3,-9.9
 2004/02/06, 6:45,24.1,31,18.1,-9.9
 2004/02/06, 7:00,22.6,30,18.1,-9.9
 2004/02/06, 7:15,22.7,32,18.5,-9.9
 2004/02/06, 7:30,23.6,32,19,-9.9
 2004/02/06, 7:45,24.3,32,18.8,-9.9
 2004/02/06, 8:00,24.9,33,18.3,-9.9
 2004/02/06, 8:15,24.1,33,18.7,-9.9
 2004/02/06, 8:30,24,33,19.2,-9.9
 2004/02/06, 8:45,23.9,33,19,-9.9
 2004/02/06, 9:00,23.3,33,18.6,-9.9
 2004/02/06, 9:15,22.9,34,18.5,-9.9
 2004/02/06, 9:30,22.8,35,18.4,-9.9
 2004/02/06, 9:45,22.6,35,18.2,-9.9
 2004/02/06,10:00,22.3,36,18,-9.9
 2004/02/06,10:15,23.1,36,18.4,-9.9
 2004/02/06,10:30,22,33,18.4,-9.9
 2004/02/06,10:45,21.5,32,18.3,-9.9
 2004/02/06,11:00,21.3,31,18.2,-9.9
 2004/02/06,11:15,21.1,31,18.1,-9.9
 2004/02/06,11:30,21,29,18,-9.9
 2004/02/06,11:45,21,30,18,-9.9
 2004/02/06,12:00,23,28,18.3,-9.9
 2004/02/06,12:15,24.1,29,18.9,-9.9
 2004/02/06,12:30,24.2,28,19.1,-9.9
 2004/02/06,12:45,23.1,28,19,-9.9
 2004/02/06,13:00,23,26,19,-9.9
 2004/02/06,13:15,22.2,23,18.6,-9.9
 2004/02/06,13:30,22.2,24,18.4,-9.9
 2004/02/06,13:45,22.2,25,18.4,-9.9
 2004/02/06,14:00,22.3,25,18.5,-9.9
 2004/02/06,14:15,22.2,26,18.5,-9.9
 2004/02/06,14:30,22.1,27,18.5,-9.9
 2004/02/06,14:45,21.6,28,18.4,-9.9
 2004/02/06,15:00,21,25,18.1,-9.9
 2004/02/06,15:15,20.5,25,17.8,-9.9
 2004/02/06,15:30,21.8,27,17.9,-9.9
 2004/02/06,15:45,21,29,18.1,-9.9
 2004/02/06,16:00,20.6,28,17.8,-9.9
 2004/02/06,16:15,20.4,28,17.7,-9.9
 2004/02/06,16:30,20.1,28,17.5,-9.9
 2004/02/06,16:45,19.9,28,17.4,-9.9
 2004/02/06,17:00,19.7,29,17.3,-9.9
 2004/02/06,17:15,19.5,29,17.1,-9.9
 2004/02/06,17:30,19.3,29,17.1,-9.9
 2004/02/06,17:45,19.2,29,17,-9.9
 2004/02/06,18:00,20.5,29,17,-9.9
 2004/02/06,18:15,22,29,17.2,-9.9
 2004/02/06,18:30,22,26,16.8,-9.9
 2004/02/06,18:45,23,25,16.5,-9.9
 2004/02/06,19:00,23,23,16.1,-9.9
 2004/02/06,19:15,23.5,24,15.7,-9.9
 2004/02/06,19:30,22.9,23,16.1,-9.9
 2004/02/06,19:45,23.4,23,16,-9.9
 2004/02/06,20:00,24,22,15.4,-9.9
 2004/02/06,20:15,24.3,21,15.3,-9.9
 2004/02/06,20:30,24.1,23,14.7,-9.9
 2004/02/06,20:45,24.2,23,14.6,-9.9
 2004/02/06,21:00,23.9,25,14.7,-9.9
 2004/02/06,21:15,24.5,28,14.7,-9.9
 2004/02/06,21:30,23.9,28,14.8,-9.9
 2004/02/06,21:45,23.7,29,15.3,-9.9
 2004/02/06,22:00,23.5,30,15.4,-9.9
 2004/02/06,22:15,23.4,30,15.4,-9.9
 2004/02/06,22:30,23.2,30,15.5,-9.9
 2004/02/06,22:45,23.2,31,15.5,-9.9
 2004/02/06,23:00,23.1,31,15.7,-9.9
 2004/02/06,23:15,23,31,15.7,-9.9
 2004/02/06,23:30,23.2,31,16.5,-9.9
 2004/02/06,23:45,23.8,30,17.4,-9.9
 2004/02/07, 0:00,24.5,33,18.2,-9.9
 2004/02/07, 0:15,24.8,32,18.6,-9.9
 2004/02/07, 0:30,23.6,33,18.1,-9.9
 2004/02/07, 0:45,22.8,32,17.8,-9.9
 2004/02/07, 1:00,22.3,31,17.7,-9.9
 2004/02/07, 1:15,21.9,31,17.5,-9.9
 2004/02/07, 1:30,21.5,30,17.4,-9.9
 2004/02/07, 1:45,21.2,30,17.3,-9.9
 2004/02/07, 2:00,21,31,17.1,-9.9
 2004/02/07, 2:15,20.8,31,17.1,-9.9
 2004/02/07, 2:30,20.6,32,17,-9.9
 2004/02/07, 2:45,20.5,33,16.8,-9.9
 2004/02/07, 3:00,20.3,33,16.7,-9.9
 2004/02/07, 3:15,20.2,32,16.6,-9.9
 2004/02/07, 3:30,20.1,33,16.4,-9.9
 2004/02/07, 3:45,19.9,32,16.4,-9.9
 2004/02/07, 4:00,19.8,33,16.2,-9.9
 2004/02/07, 4:15,19.7,33,16.1,-9.9
 2004/02/07, 4:30,19.6,32,16.2,-9.9
 2004/02/07, 4:45,19.4,32,16.1,-9.9
 2004/02/07, 5:00,19.3,32,16,-9.9
 2004/02/07, 5:15,19.2,33,16,-9.9
 2004/02/07, 5:30,19.1,32,16,-9.9
 2004/02/07, 5:45,19.3,32,16,-9.9
 2004/02/07, 6:00,22.1,32,16.5,-9.9
 2004/02/07, 6:15,22.5,29,15.9,-9.9
 2004/02/07, 6:30,22.8,29,15.6,-9.9
 2004/02/07, 6:45,23.2,29,16.2,-9.9
 2004/02/07, 7:00,22.9,31,16.1,-9.9
 2004/02/07, 7:15,22.5,30,15.9,-9.9
 2004/02/07, 7:30,22.7,32,15.8,-9.9
 2004/02/07, 7:45,22.5,33,15.7,-9.9
 2004/02/07, 8:00,22.6,33,15.7,-9.9
 2004/02/07, 8:15,22.5,33,15.7,-9.9
 2004/02/07, 8:30,22.4,33,15.7,-9.9
 2004/02/07, 8:45,22.5,34,15.8,-9.9
 2004/02/07, 9:00,22.4,34,15.9,-9.9
 2004/02/07, 9:15,22.4,34,15.9,-9.9
 2004/02/07, 9:30,22.5,34,16,-9.9
 2004/02/07, 9:45,22.5,34,16.3,-9.9
 2004/02/07,10:00,23,33,16.5,-9.9
 2004/02/07,10:15,22,33,17,-9.9
 2004/02/07,10:30,21.4,33,17,-9.9
 2004/02/07,10:45,21,32,17,-9.9
 2004/02/07,11:00,20.6,32,17.1,-9.9
 2004/02/07,11:15,20.4,32,17.1,-9.9
 2004/02/07,11:30,20.2,32,17,-9.9
 2004/02/07,11:45,20,32,17.1,-9.9
 2004/02/07,12:00,20,31,17.1,-9.9
 2004/02/07,12:15,20,31,17.1,-9.9
 2004/02/07,12:30,20.2,31,17,-9.9
 2004/02/07,12:45,20,31,17.1,-9.9
 2004/02/07,13:00,19.8,31,16.9,-9.9
 2004/02/07,13:15,21.4,31,17.1,-9.9
 2004/02/07,13:30,22.2,32,17.6,-9.9
 2004/02/07,13:45,23.1,33,18.1,-9.9
 2004/02/07,14:00,23.4,33,18.5,-9.9
 2004/02/07,14:15,23.8,32,18.6,-9.9
 2004/02/07,14:30,24.2,31,19.1,-9.9
 2004/02/07,14:45,24.5,31,19.3,-9.9
 2004/02/07,15:00,24.6,31,19.4,-9.9
 2004/02/07,15:15,24.9,31,19.7,-9.9
 2004/02/07,15:30,24.8,31,20,-9.9
 2004/02/07,15:45,24.8,31,20.3,-9.9
 2004/02/07,16:00,24.6,31,20.5,-9.9
 2004/02/07,16:15,24,31,20.6,-9.9
 2004/02/07,16:30,23.4,31,20.4,-9.9
 2004/02/07,16:45,22.9,31,20.1,-9.9
 2004/02/07,17:00,22.6,30,19.9,-9.9
 2004/02/07,17:15,22.4,30,19.8,-9.9
 2004/02/07,17:30,22.4,30,19.5,-9.9
 2004/02/07,17:45,22.6,31,19,-9.9
 2004/02/07,18:00,22.4,31,18.5,-9.9
 2004/02/07,18:15,22.1,30,18.8,-9.9
 2004/02/07,18:30,21.9,31,18.5,-9.9
 2004/02/07,18:45,21.8,32,18.4,-9.9
 2004/02/07,19:00,23.9,31,18.2,-9.9
 2004/02/07,19:15,24.2,29,18.6,-9.9
 2004/02/07,19:30,24.7,27,17.5,-9.9